Newton, KS

4:35 AM CST on November 25, 2017 (GMT -0600)
Newton City County

Weather History for KEWK - December, 2013

Change the Weather History Date:

Thursday, December 5, 2013

  Actual Average Record
Temperature  
Mean Temperature 16 °F -  
Max Temperature 19 °F 44 °F 69 °F (2001)
Min Temperature 12 °F 27 °F 12 °F (2005)
Degree Days  
Heating Degree Days 50    
Moisture  
Dew Point 2 °F    
Average Humidity 55    
Maximum Humidity 79    
Minimum Humidity 45    
Precipitation  
Precipitation 0.00 in - - ()
Sea Level Pressure  
Sea Level Pressure 30.26 in    
Wind  
Wind Speed 18 mph (North)    
Max Wind Speed 24 mph    
Max Gust Speed 31 mph    
Visibility 10 miles    
Events      
Averages and records for this station are not official NWS values.
T = Trace of Precipitation, MM = Missing Value Source: NWS Daily Summary

Daily Weather History Graph

Daily Weather History Graph

Search for Another Location

Airport or City:

Trip Planner

Search our weather history database for the weather conditions in past years. The results will help you decide how hot, cold, wet, or windy it might be!

Date:

Astronomy

Dec. 05, 2013 Rise Set
Actual Time 7:30 AM CST 5:09 PM CST
Civil Twilight 7:01 AM CST 5:38 PM CST
Nautical Twilight 6:28 AM CST 6:11 PM CST
Astronomical Twilight 5:56 AM CST 6:43 PM CST
Moon 9:52 AM CST (12/5) 8:29 PM CST (12/5)
Length of Visible Light 10h 37m
Length of Day
9h 38m
Waxing Crescent, 11% of the Moon is Illuminated
Dec 5
Waxing Crescent
Dec 9
First Quarter
Dec 17
Full
Dec 25
Last Quarter
Jan 1
New

Hourly Weather History & Observations

Time (CST) Temp. Windchill Dew Point Humidity Pressure Visibility Wind Dir Wind Speed Gust Speed Precip Events Conditions
12:15 AM 19.4 °F 3.2 °F 6.8 °F 58% 30.11 in 10.0 mi NNW 20.7 mph 26.5 mph N/A   Overcast
12:35 AM 19.4 °F 2.5 °F 5.0 °F 54% 30.13 in 10.0 mi NNW 23.0 mph 29.9 mph N/A   Overcast
12:55 AM 19.4 °F 3.2 °F 5.0 °F 54% 30.14 in 10.0 mi NNW 20.7 mph 26.5 mph N/A   Overcast
1:15 AM 19.4 °F 2.1 °F 5.0 °F 54% 30.14 in 10.0 mi NNW 24.2 mph 31.1 mph N/A   Overcast
1:35 AM 17.6 °F 0.9 °F 5.0 °F 58% 30.16 in 10.0 mi NNW 20.7 mph 31.1 mph N/A   Overcast
1:55 AM 17.6 °F 0.9 °F 5.0 °F 58% 30.15 in 10.0 mi NNW 20.7 mph 27.6 mph N/A   Overcast
2:15 AM 17.6 °F 0.5 °F 3.2 °F 53% 30.16 in 10.0 mi NNW 21.9 mph 29.9 mph N/A   Overcast
2:35 AM 17.6 °F 0.9 °F 3.2 °F 53% 30.16 in 10.0 mi NNW 20.7 mph 27.6 mph N/A   Scattered Clouds
2:55 AM 15.8 °F -0.2 °F 5.0 °F 62% 30.18 in 10.0 mi NNW 17.3 mph 23.0 mph N/A   Scattered Clouds
3:15 AM 17.6 °F 0.1 °F 5.0 °F 58% 30.19 in 10.0 mi NNW 23.0 mph 27.6 mph N/A   Partly Cloudy
3:35 AM 15.8 °F -1.1 °F 5.0 °F 62% 30.19 in 10.0 mi NNW 19.6 mph - N/A   Scattered Clouds
3:55 AM 15.8 °F -1.5 °F 5.0 °F 62% 30.18 in 10.0 mi NNW 20.7 mph 27.6 mph N/A   Scattered Clouds
4:15 AM 15.8 °F -1.1 °F 3.2 °F 58% 30.18 in 10.0 mi NNW 19.6 mph 28.8 mph N/A   Scattered Clouds
4:35 AM 15.8 °F -1.1 °F 3.2 °F 58% 30.19 in 10.0 mi NNW 19.6 mph 31.1 mph N/A   Scattered Clouds
4:55 AM 15.8 °F -1.9 °F 3.2 °F 58% 30.20 in 10.0 mi North 21.9 mph 29.9 mph N/A   Partly Cloudy
5:15 AM 15.8 °F -0.2 °F 3.2 °F 58% 30.22 in 10.0 mi NNW 17.3 mph 24.2 mph N/A   Partly Cloudy
5:35 AM 15.8 °F 0.3 °F 3.2 °F 58% 30.23 in 10.0 mi North 16.1 mph 27.6 mph N/A   Partly Cloudy
5:55 AM 15.8 °F -2.7 °F 1.4 °F 53% 30.23 in 10.0 mi North 24.2 mph - N/A   Mostly Cloudy
6:15 AM 15.8 °F -1.5 °F 1.4 °F 53% 30.23 in 10.0 mi North 20.7 mph - N/A   Overcast
6:35 AM 15.8 °F -1.1 °F 1.4 °F 53% 30.24 in 10.0 mi North 19.6 mph 23.0 mph N/A   Mostly Cloudy
6:55 AM 15.8 °F 1.4 °F -0.4 °F 49% 30.25 in 10.0 mi North 13.8 mph 24.2 mph N/A   Mostly Cloudy
7:15 AM 15.8 °F 0.3 °F -0.4 °F 49% 30.25 in 10.0 mi NNW 16.1 mph - N/A   Partly Cloudy
7:35 AM 14.0 °F -2.5 °F 1.4 °F 57% 30.26 in 10.0 mi North 17.3 mph 24.2 mph N/A   Clear
7:55 AM 14.0 °F -3.0 °F -0.4 °F 53% 30.26 in 10.0 mi North 18.4 mph 21.9 mph N/A   Clear
8:15 AM 14.0 °F -3.4 °F -0.4 °F 53% 30.25 in 10.0 mi North 19.6 mph 23.0 mph N/A   Clear
8:35 AM 14.0 °F -2.5 °F -0.4 °F 53% 30.27 in 10.0 mi North 17.3 mph 21.9 mph N/A   Clear
8:55 AM 14.0 °F -3.4 °F -0.4 °F 53% 30.28 in 10.0 mi North 19.6 mph - N/A   Clear
9:15 AM 14.0 °F -2.5 °F -0.4 °F 53% 30.30 in 10.0 mi North 17.3 mph - N/A   Clear
9:35 AM 14.0 °F -3.4 °F -0.4 °F 53% 30.30 in 10.0 mi NNW 19.6 mph - N/A   Clear
9:55 AM 14.0 °F -3.4 °F -0.4 °F 53% 30.31 in 10.0 mi NNW 19.6 mph 24.2 mph N/A   Clear
10:15 AM 14.0 °F -3.9 °F -0.4 °F 53% 30.31 in 10.0 mi North 20.7 mph 26.5 mph N/A   Clear
10:35 AM 14.0 °F -4.3 °F -0.4 °F 53% 30.30 in 10.0 mi North 21.9 mph 29.9 mph N/A   Clear
10:55 AM 14.0 °F -3.0 °F -0.4 °F 53% 30.29 in 10.0 mi North 18.4 mph 26.5 mph N/A   Partly Cloudy
11:15 AM 14.0 °F -2.5 °F -0.4 °F 53% 30.31 in 10.0 mi North 17.3 mph 23.0 mph N/A   Scattered Clouds
11:35 AM 15.8 °F 0.3 °F -0.4 °F 49% 30.31 in 10.0 mi North 16.1 mph 20.7 mph N/A   Clear
11:55 AM 15.8 °F 0.3 °F -0.4 °F 49% 30.30 in 10.0 mi North 16.1 mph - N/A   Clear
12:15 PM 15.8 °F 0.3 °F -0.4 °F 49% 30.27 in 10.0 mi North 16.1 mph - N/A   Clear
12:35 PM 15.8 °F -0.6 °F 1.4 °F 53% 30.26 in 10.0 mi North 18.4 mph - N/A   Clear
12:55 PM 15.8 °F 1.4 °F 1.4 °F 53% 30.25 in 10.0 mi North 13.8 mph - N/A   Clear
1:15 PM 15.8 °F 2.1 °F 1.4 °F 53% 30.25 in 10.0 mi NNE 12.7 mph - N/A   Clear
1:35 PM 15.8 °F 2.7 °F 1.4 °F 53% 30.25 in 10.0 mi North 11.5 mph - N/A   Clear
1:55 PM 17.6 °F 3.7 °F 1.4 °F 49% 30.26 in 10.0 mi NNE 13.8 mph - N/A   Clear
2:15 PM 17.6 °F 5.0 °F 1.4 °F 49% 30.26 in 10.0 mi North 11.5 mph - N/A   Clear
2:35 PM 17.6 °F 5.0 °F 1.4 °F 49% 30.26 in 10.0 mi North 11.5 mph - N/A   Clear
2:55 PM 15.8 °F 3.4 °F 1.4 °F 53% 30.26 in 10.0 mi North 10.4 mph - N/A   Clear
3:15 PM 17.6 °F 4.3 °F 1.4 °F 49% 30.27 in 10.0 mi North 12.7 mph - N/A   Partly Cloudy
3:35 PM 17.6 °F 5.7 °F 1.4 °F 49% 30.26 in 10.0 mi North 10.4 mph - N/A   Clear
3:55 PM 17.6 °F 5.7 °F 1.4 °F 49% 30.28 in 10.0 mi North 10.4 mph 18.4 mph N/A   Clear
4:15 PM 17.6 °F 5.0 °F -0.4 °F 45% 30.28 in 10.0 mi North 11.5 mph - N/A   Clear
4:35 PM 17.6 °F 3.7 °F -0.4 °F 45% 30.27 in 10.0 mi North 13.8 mph - N/A   Clear
4:55 PM 17.6 °F 4.3 °F -0.4 °F 45% 30.27 in 10.0 mi North 12.7 mph - N/A   Clear
5:15 PM 17.6 °F 3.2 °F -0.4 °F 45% 30.28 in 10.0 mi North 15.0 mph - N/A   Clear
5:35 PM 15.8 °F -0.2 °F -0.4 °F 49% 30.27 in 10.0 mi North 17.3 mph - N/A   Partly Cloudy
5:55 PM 15.8 °F 0.3 °F -0.4 °F 49% 30.26 in 10.0 mi North 16.1 mph - N/A   Partly Cloudy
6:15 PM 15.8 °F -0.2 °F -0.4 °F 49% 30.26 in 10.0 mi North 17.3 mph - N/A   Clear
6:35 PM 15.8 °F 1.4 °F -0.4 °F 49% 30.28 in 10.0 mi NNE 13.8 mph - N/A   Mostly Cloudy
6:55 PM 15.8 °F 0.9 °F -0.4 °F 49% 30.28 in 10.0 mi NNE 15.0 mph - N/A   Overcast
7:15 PM 15.8 °F 5.1 °F -0.4 °F 49% 30.32 in 10.0 mi NNE 8.1 mph - N/A   Overcast
7:35 PM 15.8 °F 2.1 °F -0.4 °F 49% 30.31 in 10.0 mi North 12.7 mph - N/A   Overcast
7:55 PM 15.8 °F 2.7 °F -0.4 °F 49% 30.32 in 10.0 mi NNE 11.5 mph - N/A   Overcast
8:15 PM 15.8 °F 1.4 °F -0.4 °F 49% 30.32 in 10.0 mi NNE 13.8 mph - N/A   Mostly Cloudy
8:35 PM 15.8 °F 2.1 °F -0.4 °F 49% 30.33 in 10.0 mi NNE 12.7 mph - N/A   Mostly Cloudy
8:55 PM 15.8 °F 2.7 °F -0.4 °F 49% 30.33 in 10.0 mi North 11.5 mph - N/A   Mostly Cloudy
9:15 PM 14.0 °F -0.2 °F 3.2 °F 62% 30.34 in 4.0 mi North 12.7 mph - N/A   Overcast
9:35 PM 14.0 °F -0.8 °F 5.0 °F 67% 30.32 in 5.0 mi North 13.8 mph - N/A   Scattered Clouds
9:55 PM 14.0 °F -0.8 °F 6.8 °F 73% 30.34 in 9.0 mi North 13.8 mph - N/A   Clear
10:15 PM 14.0 °F 0.5 °F 6.8 °F 73% 30.36 in 10.0 mi North 11.5 mph 16.1 mph N/A   Clear
10:35 PM 14.0 °F -0.8 °F 6.8 °F 73% 30.37 in 10.0 mi North 13.8 mph - N/A   Clear
10:55 PM 14.0 °F -2.0 °F 6.8 °F 73% 30.37 in 10.0 mi North 16.1 mph - N/A   Scattered Clouds
11:15 PM 12.2 °F -1.8 °F 6.8 °F 79% 30.37 in 9.0 mi North 11.5 mph - N/A   Mostly Cloudy
11:35 PM 12.2 °F -3.1 °F 6.8 °F 79% 30.37 in 3.0 mi North 13.8 mph - N/A   Overcast
11:55 PM 12.2 °F -2.5 °F 6.8 °F 79% 30.38 in 3.0 mi North 12.7 mph - N/A   Overcast